STARLINK-11650, 63312

Orbit data source: Space-Track

STARLINK-11650, 63312 is a payload satellite owned by SpaceX/Seattle (US) in LEO that was launched on Tue, 18 Mar 2025 UTC via an FALCON 9 launch vehicle from the Air Force Eastern Test Range (AFETR). Payload-class satellites include a variety of spacecraft equipped with specific instruments for various scientific and technological missions. These include communications satellites like Starlink; space stations such as the ISS; scientific satellites like the Hubble; Earth observation satellites from companies like Planet Labs, Umbra, and HawkEye 360; GPS; miniature CubeSats for education and research; and military/defense satellites.

Loading next visibility...
Identifier
63312, 2025-057F
Orbit
LEO
Last TLE update
1 day ago
Origin
Manufacturer
SpaceX/Seattle
Mission
Operational spacecraft
Bus & Motor
STARLINK V2M, Unknown motor
Mass
730 kg wet, ~700 kg dry
Launch date (UTC)
2025-03-18 (1 month ago)
Launch vehicle
FALCON 9
Launch site
Air Force Eastern Test Range (AFETR)
Object type
Payload
Rocket body
Debris
Shape & HBR
Unknown
Radar Cross Section
Large (>1 m²)

Expand to show TLE details & history

TLE from 1 day ago
0 STARLINK-11650
1 63312U 25057F   25119.00616394 -.00001232  00000-0 -60990-5 0  9990
2 63312  43.0028   1.5617 0002816 288.8151  71.2411 15.70832527  7715
Epoch: 2025-04-29T00:08Z
Definitive object data (Epoch: 2025-04-29T00:08:52.564Z)
Latitude
-0.00002°
Longitude
142.13063°
Altitude
355.679 km
Speed
7.698 km/s
True Right ascension
00h 06m 14s
True Declination
0° 00' 00"
Sunlit
Object was in daylight at TLE epoch
Visualization TLE readout
Latitude
37.9945°
Longitude
-170.361°
Altitude
359.637 km
Speed
7.698 km/s
Apparent Right ascension
05h 05m 38s
Apparent Declination
0° 21' 16"
Sunlit
Object is in daylight
Visualization observer readout
Local Sidereal Time
19:05:12
Azimuth
41.617° NE
Elevation
-41.372°
Doppler factor
1
Orbital elements
Apogee altitude
360.395 km
Perigee altitude
356.6 km
Semi-major axis
6,736.635 km
Eccentricity
0.0002816
Inclination
43.0028°
RAAN
1.5617°
Arg. of periapsis
288.8151°
True anomaly
71.27166°
Mean anomaly
71.2411°
Eccentric anomaly
71.25638°
Mean motion
3.92535 °/min
BSTAR
-0.000006099
Orbital period
91.71 mins
Loading maneuver chart data...
Loading SW <> Apogee altitude chart data...
Loading historical data...
Loading historical data...
Loading historical data...
Loading historical data...
Loading historical data...
Loading historical data...
Loading historical data...

STARLINK-11650 Visibility forecast

Observer location: undefined°, undefined°

Span
Click to sort rows by Start time (UTC) header in descending order
Start Az.
Max El. time (UTC)
Max El. Az.
Max El.
End time (UTC)
End Az.
4 mins2025-04-30 19:06:01.808Z214.096° SW2025-04-30 19:08:01.808Z146.348° SSE30.954°2025-04-30 19:10:01.808Z88.649° E
4 mins2025-04-30 22:19:01.808Z306.223° NW2025-04-30 22:20:01.808Z345.37° N35.183°2025-04-30 22:23:01.808Z81.861° E
4 mins2025-04-30 23:55:01.808Z274.276° WNW2025-04-30 23:56:01.808Z245.695° WSW37.325°2025-04-30 23:59:01.808Z124.662° SE
|